User: anonymous   Login
Location: Charleston
(38.3500°N, 81.6330°W)
Time: 21:39:50
(UTC-04:00)
Language:

Cosmos 2228 - Orbit

View from above orbital plane
View from above orbital plane
View from above satellite
View from above satellite

Ground track
Ground track

The orbit data is extracted from the following two-line orbital elements,

1 22286U 92094A   15184.41370832  .00000483  00000-0  51079-4 0  9992
2 22286 082.5218 327.7259 0020160 337.3457 022.6868 14.87003729216242
Epoch (UTC): 03 July 2015 09:55:44
Eccentricity: 0.0020160
inclination: 82.5218°
perigee height: 593 km
apogee height: 621 km
right ascension of ascending node: 327.7259°
argument of perigee: 337.3457°
revolutions per day: 14.87003729
mean anomaly at epoch: 22.6868°
orbit number at epoch: 21624

The dashed part of the orbit path shows where the satellite is in the earth's shadow,  

DLR